Weather History for Metropolis, IL

Change the Weather History Date:

Tuesday, March 19, 2013

  Actual Average (KPAH) Record (KPAH)
Temperature  
Mean Temperature 40 °F 49 °F  
Max Temperature 51 °F 60 °F 81 °F (1995)
Min Temperature 30 °F 39 °F 17 °F (1965)
Degree Days  
Heating Degree Days 24 16  
Month to date heating degree days 355  
Since 1 July heating degree days 3651  
Cooling Degree Days 0 0  
Month to date cooling degree days 0  
Year to date cooling degree days 0  
Moisture  
Dew Point 23 °F    
Average Humidity 54    
Maximum Humidity 100    
Minimum Humidity 22    
Precipitation  
Precipitation 0.00 in 0.12 in 1.35 in (1943)
Month to date precipitation 2.29  
Year to date precipitation 9.88  
Snow  
Snow 0.00 in 0.00 in 1.50 in (1951)
Month to date snowfall 0.5  
Since 1 July snowfall 9.0  
Snow Depth -    
Sea Level Pressure  
Sea Level Pressure 30.15 in    
Wind  
Wind Speed 4 mph (NW)    
Max Wind Speed 13 mph    
Max Gust Speed 18 mph    
Visibility 10 miles    
Events      
T = Trace of Precipitation, MM = Missing Value Source: NWS Daily Summary

Daily Weather History Graph

Daily Weather History Graph

Search for Another Location

Airport:

Trip Planner

Search our weather history database for the weather conditions in past years. The results will help you decide how hot, cold, wet, or windy it might be!

Date:

Astronomy

Mar. 19, 2013 Rise Set
Actual Time 6:59 AM CDT 7:06 PM CDT
Civil Twilight 6:33 AM CDT 7:32 PM CDT
Nautical Twilight 6:03 AM CDT 8:02 PM CDT
Astronomical Twilight 5:32 AM CDT 8:33 PM CDT
Moon 11:57 AM CDT (3/19) 1:45 AM CDT (3/19)
Length of Visible Light 12h 58m
Length of Day
12h 06m
Waxing Crescent, 50% of the Moon is Illuminated
Mar 19
Waxing Crescent
Mar 19
First Quarter
Mar 27
Full
Apr 2
Last Quarter
Apr 10
New

Hourly Weather History & Observations

Time (CDT) Temp. Windchill Dew Point Humidity Pressure Visibility Wind Dir Wind Speed Gust Speed Precip Events Conditions
12:15 AM 35.4 °F - 35.4 °F 100% 30.00 in 10.0 mi Calm Calm - N/A   Clear
12:35 AM 34.9 °F - 34.9 °F 100% 30.00 in 10.0 mi Calm Calm - N/A   Clear
12:55 AM 35.2 °F 32.4 °F 35.2 °F 100% 30.01 in 10.0 mi WSW 3.5 mph - N/A   Clear
1:15 AM 39.4 °F 37.2 °F 38.3 °F 96% 30.03 in 10.0 mi West 3.5 mph - N/A   Clear
1:35 AM 38.8 °F 34.6 °F 37.2 °F 94% 30.04 in 10.0 mi WNW 5.8 mph - N/A   Clear
1:55 AM 39.9 °F 35.8 °F 35.8 °F 85% 30.05 in 10.0 mi WNW 5.8 mph - N/A   Clear
2:15 AM 39.4 °F 35.2 °F 33.1 °F 78% 30.05 in 10.0 mi WNW 5.8 mph - N/A   Clear
2:35 AM 39.7 °F 36.5 °F 31.1 °F 71% 30.06 in 10.0 mi WNW 4.6 mph - N/A   Clear
2:55 AM 40.1 °F - 31.1 °F 70% 30.06 in 10.0 mi Calm Calm - N/A   Clear
3:15 AM 36.5 °F - 32.0 °F 84% 30.05 in 10.0 mi Calm Calm - N/A   Clear
3:35 AM 35.2 °F - 31.6 °F 87% 30.06 in 10.0 mi Calm Calm - N/A   Clear
3:55 AM 34.3 °F - 30.0 °F 84% 30.05 in 10.0 mi Calm Calm - N/A   Clear
4:15 AM 35.2 °F 30.3 °F 30.2 °F 82% 30.05 in 10.0 mi NNW 5.8 mph - N/A   Clear
4:35 AM 36.3 °F 32.5 °F 27.3 °F 70% 30.05 in 10.0 mi NNW 4.6 mph - N/A   Clear
4:55 AM 36.1 °F 31.4 °F 25.7 °F 66% 30.08 in 10.0 mi NW 5.8 mph - N/A   Clear
5:15 AM 35.2 °F 30.3 °F 26.1 °F 69% 30.09 in 10.0 mi NW 5.8 mph - N/A   Clear
5:35 AM 34.7 °F 29.6 °F 25.3 °F 69% 30.08 in 10.0 mi NNW 5.8 mph - N/A   Clear
5:55 AM 33.6 °F 28.4 °F 24.8 °F 70% 30.10 in 10.0 mi NW 5.8 mph - N/A   Clear
6:15 AM 32.5 °F 29.3 °F 24.6 °F 73% 30.10 in 10.0 mi NW 3.5 mph - N/A   Clear
6:35 AM 32.5 °F 29.3 °F 24.8 °F 73% 30.12 in 10.0 mi NNW 3.5 mph - N/A   Clear
6:55 AM 31.6 °F - 24.3 °F 74% 30.13 in 10.0 mi Calm Calm - N/A   Clear
7:15 AM 30.0 °F 26.5 °F 24.8 °F 81% 30.13 in 10.0 mi NW 3.5 mph - N/A   Clear
7:35 AM 32.2 °F - 25.3 °F 76% 30.13 in 10.0 mi Calm Calm - N/A   Clear
7:55 AM 33.8 °F - 26.4 °F 74% 30.13 in 10.0 mi Calm Calm - N/A   Clear
8:15 AM 35.6 °F - 26.4 °F 69% 30.14 in 10.0 mi Calm Calm - N/A   Clear
8:35 AM 36.1 °F 32.3 °F 25.0 °F 64% 30.13 in 10.0 mi NNW 4.6 mph - N/A   Clear
8:55 AM 36.9 °F 30.7 °F 25.2 °F 63% 30.14 in 10.0 mi NNW 8.1 mph - N/A   Clear
9:15 AM 37.8 °F 30.2 °F 21.7 °F 53% 30.15 in 10.0 mi NNW 11.5 mph - N/A   Clear
9:35 AM 39.0 °F 32.3 °F 22.3 °F 51% 30.17 in 10.0 mi NW 10.4 mph 16.1 mph N/A   Clear
9:55 AM 39.6 °F 34.7 °F 21.0 °F 48% 30.19 in 10.0 mi NW 6.9 mph 18.4 mph N/A   Scattered Clouds
10:15 AM 40.5 °F 34.6 °F 21.4 °F 47% 30.19 in 10.0 mi NNW 9.2 mph - N/A   Overcast
10:35 AM 41.9 °F 36.9 °F 20.1 °F 42% 30.18 in 10.0 mi NW 8.1 mph - N/A   Scattered Clouds
10:55 AM 43.3 °F 38.6 °F 21.6 °F 42% 30.20 in 10.0 mi WNW 8.1 mph 16.1 mph N/A   Clear
11:15 AM 44.8 °F 38.7 °F 19.6 °F 37% 30.20 in 10.0 mi NW 12.7 mph 17.3 mph N/A   Clear
11:35 AM 45.5 °F 41.3 °F 18.5 °F 34% 30.20 in 10.0 mi NW 8.1 mph - N/A   Clear
11:55 AM 46.9 °F - 20.5 °F 35% 30.19 in 10.0 mi NNW 10.4 mph - N/A   Clear
12:15 PM 47.8 °F - 16.7 °F 29% 30.19 in 10.0 mi North 11.5 mph 18.4 mph N/A   Clear
12:35 PM 48.9 °F - 17.1 °F 28% 30.19 in 10.0 mi NW 10.4 mph - N/A   Clear
12:55 PM 49.6 °F - 14.9 °F 25% 30.19 in 10.0 mi North 9.2 mph - N/A   Clear
1:15 PM 50.5 °F - 14.4 °F 24% 30.20 in 10.0 mi NNW 10.4 mph - N/A   Clear
1:35 PM 51.1 °F - 18.3 °F 27% 30.20 in 10.0 mi NW 8.1 mph - N/A   Clear
1:55 PM 50.5 °F - 12.4 °F 22% 30.19 in 10.0 mi NNW 10.4 mph - N/A   Clear
2:15 PM 51.1 °F - 16.0 °F 25% 30.18 in 10.0 mi NNE 6.9 mph - N/A   Scattered Clouds
2:35 PM 50.9 °F - 14.2 °F 23% 30.18 in 10.0 mi North 6.9 mph - N/A   Scattered Clouds
2:55 PM 50.9 °F - 13.6 °F 23% 30.18 in 10.0 mi NNW 6.9 mph - N/A   Clear
3:15 PM 50.5 °F - 16.3 °F 26% 30.19 in 10.0 mi NNW 8.1 mph - N/A   Clear
3:35 PM 50.5 °F - 16.0 °F 25% 30.19 in 10.0 mi NNE 3.5 mph - N/A   Scattered Clouds
3:55 PM 50.5 °F - 16.7 °F 26% 30.19 in 10.0 mi WNW 4.6 mph - N/A   Scattered Clouds
4:15 PM 50.4 °F - 16.7 °F 26% 30.19 in 10.0 mi NNW 3.5 mph - N/A   Clear
4:35 PM 50.2 °F - 16.9 °F 27% 30.19 in 10.0 mi NNW 6.9 mph - N/A   Clear
4:55 PM 49.8 °F - 14.5 °F 25% 30.19 in 10.0 mi NNW 4.6 mph - N/A   Clear
5:15 PM 49.6 °F - 13.1 °F 23% 30.19 in 10.0 mi NNW 5.8 mph - N/A   Clear
5:35 PM 49.3 °F - 12.4 °F 23% 30.19 in 10.0 mi Calm Calm - N/A   Clear
5:55 PM 49.1 °F - 15.4 °F 26% 30.19 in 10.0 mi Calm Calm - N/A   Clear
6:15 PM 48.9 °F - 16.7 °F 28% 30.20 in 10.0 mi NW 4.6 mph - N/A   Mostly Cloudy
6:55 PM 47.7 °F - 16.9 °F 29% 30.20 in 10.0 mi North 3.5 mph - N/A   Overcast
7:15 PM 46.8 °F - 18.0 °F 32% 30.20 in 10.0 mi North 4.6 mph - N/A   Mostly Cloudy
7:35 PM 45.5 °F - 18.3 °F 34% 30.20 in 10.0 mi Calm Calm - N/A   Scattered Clouds
7:55 PM 44.6 °F - 18.5 °F 35% 30.20 in 10.0 mi Calm Calm - N/A   Scattered Clouds
8:35 PM 40.5 °F - 22.1 °F 48% 30.20 in 10.0 mi Calm Calm - N/A   Scattered Clouds
8:55 PM 39.6 °F - 17.1 °F 40% 30.20 in 10.0 mi Calm Calm - N/A   Clear
9:15 PM 39.0 °F - 24.4 °F 56% 30.20 in 10.0 mi Calm Calm - N/A   Clear
9:35 PM 37.4 °F - 24.1 °F 59% 30.20 in 10.0 mi Calm Calm - N/A   Scattered Clouds
9:55 PM 37.8 °F - 23.9 °F 57% 30.19 in 10.0 mi Calm Calm - N/A   Scattered Clouds
10:15 PM 36.0 °F - 25.0 °F 64% 30.19 in 10.0 mi Calm Calm - N/A   Scattered Clouds
10:35 PM 35.8 °F - 27.5 °F 72% 30.19 in 10.0 mi Calm Calm - N/A   Clear
10:55 PM 35.1 °F - 27.1 °F 73% 30.19 in 10.0 mi Calm Calm - N/A   Mostly Cloudy
11:15 PM 35.4 °F - 27.0 °F 71% 30.19 in 10.0 mi Calm Calm - N/A   Scattered Clouds
11:35 PM 34.5 °F - 25.9 °F 71% 30.19 in 10.0 mi Calm Calm - N/A   Clear
11:55 PM 34.0 °F - 27.0 °F 75% 30.19 in 10.0 mi Calm Calm - N/A   Clear